Hourly Weather Alkatovo

Today, 4 March, Thursday

Time Temperature Precipitation Wind Pressure Humidity
00:00 -2°C° 0.2 mm 6 mps 732 mmHg 94%
01:00 -2°C° 0.2 mm 6 mps 732 mmHg 95%
02:00 -2°C° 0 mm 7 mps 732 mmHg 97%
03:00 -2°C° 0.3 mm 6 mps 731 mmHg 97%
04:00 -1°C° 0.3 mm 5 mps 731 mmHg 96%
05:00 -1°C° 0.3 mm 5 mps 730 mmHg 96%
06:00 -2°C° 0.6 mm 4 mps 730 mmHg 92%
07:00 -2°C° 0.6 mm 3 mps 730 mmHg 89%
08:00 -2°C° 0.6 mm 3 mps 730 mmHg 85%
09:00 -2°C° 0 mm 3 mps 730 mmHg 79%
10:00 -2°C° 0 mm 3 mps 730 mmHg 74%
11:00 -2°C° 0 mm 3 mps 730 mmHg 68%
12:00 -1°C° 0 mm 3 mps 730 mmHg 66%
13:00 -1°C° 0 mm 3 mps 730 mmHg 64%
14:00 -1°C° 0 mm 3 mps 730 mmHg 62%
15:00 -2°C° 0 mm 3 mps 730 mmHg 67%
16:00 -4°C° 0 mm 3 mps 730 mmHg 72%
17:00 -4°C° 0 mm 2 mps 730 mmHg 77%
18:00 -5°C° 0 mm 2 mps 731 mmHg 82%
19:00 -5°C° 0 mm 2 mps 731 mmHg 86%
20:00 -4°C° 0 mm 1 mps 731 mmHg 91%
21:00 -6°C° 0.1 mm 2 mps 731 mmHg 92%
22:00 -6°C° 0.1 mm 2 mps 732 mmHg 93%
23:00 -6°C° 0.1 mm 2 mps 732 mmHg 94%

Tomorrow, 5 March, Friday

Time Temperature Precipitation Wind Pressure Humidity
00:00 -6°C° 0.1 mm 2 mps 732 mmHg 92%
01:00 -8°C° 0.1 mm 3 mps 733 mmHg 91%
02:00 -8°C° 0.1 mm 3 mps 733 mmHg 90%
03:00 -8°C° 0 mm 3 mps 733 mmHg 91%
04:00 -8°C° 0 mm 2 mps 734 mmHg 92%
05:00 -8°C° 0 mm 2 mps 734 mmHg 92%
06:00 -8°C° 0 mm 2 mps 734 mmHg 91%
07:00 -9°C° 0 mm 3 mps 735 mmHg 90%
08:00 -8°C° 0 mm 3 mps 735 mmHg 89%
09:00 -7°C° 0 mm 2 mps 735 mmHg 83%
10:00 -6°C° 0 mm 2 mps 735 mmHg 77%
11:00 -5°C° 0 mm 2 mps 736 mmHg 71%
12:00 -5°C° 0 mm 2 mps 736 mmHg 69%
13:00 -4°C° 0 mm 2 mps 736 mmHg 68%
14:00 -4°C° 0 mm 2 mps 737 mmHg 66%
15:00 -5°C° 0 mm 2 mps 737 mmHg 70%
16:00 -5°C° 0 mm 2 mps 737 mmHg 74%
17:00 -4°C° 0 mm 1 mps 737 mmHg 78%
18:00 -7°C° 0 mm 2 mps 738 mmHg 81%
19:00 -7°C° 0 mm 2 mps 738 mmHg 84%
20:00 -8°C° 0 mm 2 mps 739 mmHg 87%
21:00 -8°C° 0 mm 2 mps 739 mmHg 89%
22:00 -9°C° 0 mm 2 mps 739 mmHg 91%
23:00 -8°C° 0 mm 1 mps 740 mmHg 93%

Day after tomorrow, 6 March, Saturday

Time Temperature Precipitation Wind Pressure Humidity
00:00 -8°C° 0 mm 1 mps 740 mmHg 94%
01:00 -8°C° 0 mm 1 mps 740 mmHg 94%
02:00 -8°C° 0 mm 1 mps 741 mmHg 95%
03:00 -9°C° 0 mm 1 mps 741 mmHg 95%
04:00 -10°C° 0 mm 2 mps 741 mmHg 95%
05:00 -10°C° 0 mm 2 mps 741 mmHg 95%
06:00 -10°C° 0 mm 2 mps 741 mmHg 93%
07:00 -10°C° 0 mm 2 mps 742 mmHg 91%
08:00 -9°C° 0 mm 2 mps 742 mmHg 89%
09:00 -10°C° 0 mm 3 mps 742 mmHg 83%
10:00 -9°C° 0 mm 3 mps 742 mmHg 78%
11:00 -8°C° 0 mm 3 mps 742 mmHg 72%
12:00 -7°C° 0 mm 3 mps 742 mmHg 70%
13:00 -7°C° 0 mm 3 mps 741 mmHg 67%
14:00 -6°C° 0 mm 3 mps 741 mmHg 65%
15:00 -7°C° 0 mm 3 mps 740 mmHg 67%
16:00 -8°C° 0 mm 4 mps 739 mmHg 70%
17:00 -8°C° 0 mm 4 mps 739 mmHg 72%
18:00 -8°C° 0 mm 4 mps 738 mmHg 76%
19:00 -8°C° 0 mm 5 mps 737 mmHg 79%
20:00 -9°C° 0 mm 6 mps 736 mmHg 82%
21:00 -9°C° 0.3 mm 7 mps 735 mmHg 85%
22:00 -8°C° 0.3 mm 7 mps 733 mmHg 87%
23:00 -8°C° 0.3 mm 7 mps 732 mmHg 90%

7 March, Sunday

Time Temperature Precipitation Wind Pressure Humidity
00:00 -8°C° 0.4 mm 7 mps 731 mmHg 90%
01:00 -8°C° 0.4 mm 8 mps 730 mmHg 90%
02:00 -8°C° 0.4 mm 8 mps 729 mmHg 90%
03:00 -7°C° 0.5 mm 8 mps 727 mmHg 91%
04:00 -7°C° 0.5 mm 7 mps 726 mmHg 91%
05:00 -7°C° 0.5 mm 7 mps 725 mmHg 92%
06:00 -8°C° 1 mm 7 mps 725 mmHg 90%
07:00 -9°C° 1 mm 7 mps 724 mmHg 88%
08:00 -10°C° 1 mm 6 mps 724 mmHg 87%
09:00 -11°C° 0.1 mm 7 mps 725 mmHg 76%
10:00 -11°C° 0.1 mm 7 mps 726 mmHg 65%
11:00 -11°C° 0.1 mm 8 mps 726 mmHg 53%
12:00 -9°C° 0 mm 7 mps 726 mmHg 54%
13:00 -9°C° 0 mm 7 mps 726 mmHg 54%
14:00 -8°C° 0 mm 7 mps 726 mmHg 55%
15:00 -9°C° 0 mm 7 mps 726 mmHg 57%
16:00 -9°C° 0 mm 6 mps 725 mmHg 59%
17:00 -9°C° 0 mm 6 mps 724 mmHg 62%
18:00 -9°C° 0.3 mm 7 mps 724 mmHg 68%
19:00 -9°C° 0.3 mm 7 mps 723 mmHg 74%
20:00 -9°C° 0.3 mm 7 mps 723 mmHg 80%
21:00 -12°C° 0.5 mm 7 mps 724 mmHg 79%
22:00 -12°C° 0.5 mm 6 mps 724 mmHg 79%
23:00 -14°C° 0.5 mm 6 mps 725 mmHg 78%

8 March, Monday

Time Temperature Precipitation Wind Pressure Humidity
00:00 -14°C° 0.1 mm 6 mps 726 mmHg 81%
01:00 -15°C° 0.1 mm 6 mps 727 mmHg 83%
02:00 -15°C° 0.1 mm 6 mps 728 mmHg 86%
03:00 -16°C° 0 mm 6 mps 729 mmHg 87%
04:00 -15°C° 0 mm 5 mps 730 mmHg 89%
05:00 -16°C° 0 mm 4 mps 731 mmHg 91%
06:00 -16°C° 0 mm 4 mps 732 mmHg 89%
07:00 -16°C° 0 mm 4 mps 732 mmHg 88%
08:00 -17°C° 0 mm 5 mps 733 mmHg 87%
09:00 -15°C° 0 mm 5 mps 733 mmHg 84%
10:00 -14°C° 0 mm 5 mps 734 mmHg 81%
11:00 -14°C° 0 mm 4 mps 734 mmHg 79%
12:00 -13°C° 0.1 mm 5 mps 735 mmHg 79%
13:00 -13°C° 0.1 mm 5 mps 736 mmHg 79%
14:00 -13°C° 0.1 mm 5 mps 736 mmHg 79%
15:00 -14°C° 0.1 mm 4 mps 736 mmHg 81%
16:00 -15°C° 0.1 mm 4 mps 737 mmHg 83%
17:00 -15°C° 0.1 mm 4 mps 737 mmHg 85%
18:00 -16°C° 0 mm 4 mps 738 mmHg 87%
19:00 -17°C° 0 mm 4 mps 739 mmHg 88%
20:00 -17°C° 0 mm 4 mps 739 mmHg 89%
21:00 -18°C° 0 mm 4 mps 740 mmHg 89%
22:00 -17°C° 0 mm 3 mps 740 mmHg 89%
23:00 -18°C° 0 mm 3 mps 741 mmHg 90%

9 March, Tuesday

Time Temperature Precipitation Wind Pressure Humidity
00:00 -18°C° 0 mm 3 mps 741 mmHg 91%
01:00 -18°C° 0 mm 3 mps 742 mmHg 91%
02:00 -19°C° 0 mm 3 mps 742 mmHg 92%
03:00 -19°C° 0 mm 3 mps 743 mmHg 93%
04:00 -21°C° 0 mm 3 mps 743 mmHg 94%
05:00 -21°C° 0 mm 3 mps 744 mmHg 95%
06:00 -21°C° 0 mm 3 mps 744 mmHg 94%
07:00 -21°C° 0 mm 3 mps 745 mmHg 92%
08:00 -22°C° 0 mm 3 mps 745 mmHg 91%
09:00 -18°C° 0 mm 2 mps 746 mmHg 87%
10:00 -16°C° 0 mm 2 mps 746 mmHg 82%
11:00 -15°C° 0 mm 2 mps 746 mmHg 78%
12:00 -14°C° 0 mm 2 mps 747 mmHg 76%
13:00 -13°C° 0 mm 2 mps 747 mmHg 74%
14:00 -13°C° 0 mm 3 mps 747 mmHg 72%
15:00 -12°C° 0 mm 2 mps 747 mmHg 77%
16:00 -13°C° 0 mm 2 mps 747 mmHg 82%
17:00 -12°C° 0 mm 1 mps 747 mmHg 87%
18:00 -13°C° 0 mm 1 mps 747 mmHg 89%
19:00 -14°C° 0 mm 1 mps 748 mmHg 91%
20:00 -15°C° 0 mm 1 mps 748 mmHg 93%
21:00 -16°C° 0 mm 1 mps 748 mmHg 94%
22:00 -16°C° 0 mm 0 mps 748 mmHg 94%
23:00 -17°C° 0 mm 0 mps 748 mmHg 94%
Show more